Regional Weather Roundup
Issued by NWS

Home | Current Version | Previous Version | Text Only | Print | Product List | Glossary On
Versions: 1 2 3 4 5 6 7 8 9 10 11 12 13 14 15 16 17 18 19 20 21 22 23 24 25 26 27 28 29 30 31 32 33 34 35 36 37 38 39 40 41 42 43 44 45 46 47 48 49 50
000
ASUS44 KLUB 060101
RWRTX
WEST TEXAS WEATHER ROUNDUP
NATIONAL WEATHER SERVICE LUBBOCK TX
800 PM CDT SUN JUL 05 2015

NOTE: "FAIR" INDICATES FEW OR NO CLOUDS BELOW 12,000 FEET WITH NO
SIGNIFICANT WEATHER AND/OR OBSTRUCTIONS TO VISIBILITY.

TXZ004-006>008-010-012-014-016-OKZ002-060200-
TEXAS PANHANDLE/OKLAHOMA PANHANDLE

CITY           SKY/WX    TMP DP  RH WIND       PRES   REMARKS
AMARILLO       MOSUNNY   86  57  37 S14       29.94S
BORGER         MOSUNNY   88  60  38 S12       29.90S
CANADIAN       MOSUNNY   89  66  47 S13       29.86F
DALHART        CLOUDY    89  57  33 S22       29.93R
DUMAS          PTSUNNY   85  58  39 S13       29.93R
GUYMON         PTSUNNY   89  57  33 S13       29.85S
$$

TXZ026-029-035-045-048-060200-
SOUTHERN PANHANDLE/SOUTH PLAINS/ROLLING PLAINS

CITY           SKY/WX    TMP DP  RH WIND       PRES   REMARKS
CHILDRESS      PTCLDY    90  66  45 S14       29.87S
LUBBOCK        PTSUNNY   89  62  40 S17       29.93F
$$

TXZ052-054-060>062-072-078-127-140-154-169-060200-
PERMIAN BASIN/CONCHO VALLEY/BIG COUNTRY/EDWARDS PLATEAU

CITY           SKY/WX    TMP DP  RH WIND       PRES   REMARKS
ABILENE        CLEAR     89  62  40 SE18G25   29.92S
JUNCTION       CLEAR     87  66  49 S15G23    29.96R
MIDLAND        SUNNY     90  65  43 S21G28    29.93R
ODESSA         SUNNY     89  64  43 S18G25    29.94R
SAN ANGELO     CLEAR     89  63  41 S13       29.93R
WINK           MOSUNNY   91  63  39 SE15      29.89R
$$

TXZ055-058-074-075-080-082-060200-
FAR WEST/SOUTHWEST MOUNTAINS/TRANS PECOS

CITY           SKY/WX    TMP DP  RH WIND       PRES   REMARKS
ALPINE         CLOUDY    78  61  55 S16G23    30.10S
DRYDEN           N/A     88  66  48 S14       29.94R
EL PASO        MOSUNNY   90  57  32 W18G24    29.95S
FORT STOCKTON  PTSUNNY   84  62  47 S15G24    29.94R
GUADALUPE PASS CLOUDY    82  57  42 SW14      30.10S
MARFA          CLOUDY   N/A N/A N/A S8        30.10R
$$

TXZ014-016-019-021>030-083-060200
TEXAS TECH WEST TEXAS MESONET/TEXAS PANHANDLE/NORTHERN SOUTH PLAINS

CITY           SKY/WX    TMP DP  RH WIND       PRES   REMARKS
ABERNATHY 5ENE   N/A     87  62  43 S13       29.95S
AMARILLO 9NNE    N/A     86  62  43 S8        29.91S
AMARILLO 7SSE    N/A     86  60  40 S13       29.95S
AMHERST 1NE      N/A     88  56  33 S9        29.95S
BOOTLEG 11WNW    N/A     87  57  37 SE15      29.99R
CANADIAN 6E      N/A     87  67  50 SE12      29.86F
CAPROCK CYN SP   N/A     88  63  43 SE13      29.91S
CHILDRESS 2NNE   N/A     90  65  42 SE13      29.87S
CLARENDON 2WSW   N/A     88  61  39 SE15      29.91S
CLAUDE 12SW      N/A     86  60  41 S9        29.94S
DIMMITT 2NE      N/A     87  59  38 SE13      29.96S
FLOYDADA 2NNE    N/A     86  62  43 SE13      29.94S
FRIONA 2NE       N/A     88  54  31 S16       29.96S
GOODLETT 3W      N/A     92  64  38 S12       29.85S
HART 3N          N/A     86  60  40 SE8       29.96S
HEREFORD 2NW     N/A     87  53  31 SE12      29.95S
MCLEAN 1E        N/A     86  62  44 SE12      29.90F
MEMPHIS 1NE      N/A     91  64  40 SE10      29.87S
MULESHOE 2SSW    N/A     86  56  36 SE8       29.95S
OLTON 6S         N/A     86  60  40 SE14      29.95R
PALO DURO SP     N/A     87  58  37 S9        29.95S
PAMPA 2E         N/A     85  60  42 S13       29.92F
PLAINVIEW 1S     N/A     88  62  42 S12       29.94S
SILVERTON 7ESE   N/A     87  62  43 S10       29.94S
TULIA 2ENE       N/A     87  60  41 S9        29.95S
TURKEY 2WSW      N/A     91  63  39 S14       29.89S
UMBARGER 3NNE    N/A     87  59  39 S15       29.96S
$$

TXZ033>036-039>041-045>048-060200
TEXAS TECH WEST TEXAS MESONET/SOUTH PLAINS

CITY           SKY/WX    TMP DP  RH WIND       PRES   REMARKS
AIKEN 3WSW       N/A     87  65  47 S15       29.96R
ANDREWS 2NE      N/A     89  60  38 S16       29.93R
ANTON 6SSW       N/A     89  61  38 SE14      29.94S
BROWNFIELD 2S    N/A     90  57  32 SE10      29.93S
DENVR CTY 7WNW   N/A     89  49  25 SE5       29.94S
GAIL 2ESE        N/A     88  65  47 SE13      29.90S
LAMESA 2SE       N/A     90  64  41 SE14      29.93R
LEVELLAND 4S     N/A     89  55  31 S9        29.95R
LUBBOCK 3WNW     N/A     88  62  41 S9        29.93S
MORTON 1ENE      N/A     88  54  30 S9        29.96R
ODONNELL 1N      N/A     88  61  39 SE15      29.93S
PLAINS 3N        N/A     88  55  32 SE6       29.95S
RALLS 1SE        N/A     86  65  48 S15       29.95
REESE CENTER     N/A     87  61  42 S14       29.94S
SEAGRAVES 1SW    N/A     91  56  30 S7        29.93R
SEMINOLE 2NNE    N/A     92  53  27 SE8       29.92S
SLATON 2NE       N/A     87  62  43 SE17      29.93S
SNYDER 3E        N/A     87  66  48 SE15      29.91S
SUNDOWN 8SW      N/A     87  60  39 SE5       29.95S
TAHOKA 3NNE      N/A     88  65  45 SE14      29.93S
WOLFFORTH 6SSW   N/A     89  62  40 SE16      29.94R
$$

TXZ031-032-036>038-042>044-060200-
TEXAS TECH WEST TEXAS MESONET/ROLLING PLAINS

CITY           SKY/WX    TMP DP  RH WIND       PRES   REMARKS
ASPERMONT 3NE    N/A     91  65  41 S10       29.88S
FLUVANNA 3WNW    N/A     87  64  47 SE14      29.93R
GRAHAM 5SSW      N/A     88  64  44 SE14      29.92S
GUTHRIE 10WSW    N/A     91  64  40 S13       29.88R
HASKELL 1NW      N/A     91  59  34 S15       29.87S
JAYTON 1SSE      N/A     90  65  42 S12       29.89S
KNOX CITY 3NW    N/A     93  60  33 S17       29.86S
LK A HENRY 1NW   N/A     90  66  44 S12       29.90S
NORTHFIELD 1S    N/A     91  67  45 S9        29.87S
ODELL 4ENE       N/A     90  68  48 S14       29.87R
PADUCAH 10SW     N/A     89  64  44 S12       29.88R
POST 1NE         N/A     88  65  45 SE12      29.91S
RRING SPRGS 3N   N/A     87  67  50 S12       29.91S
SEYMOUR 3NW      N/A     90  65  43 SE14      29.87R
SPUR 1W          N/A     89  64  42 S9        29.89S
WEINERT 2NNE     N/A     89  65  44 SE17      29.87S
WHITE RVR 6NE    N/A     88  65  46 S14       29.92R
$$

TXZ052-054-060>062-072-078-127-140-154-169-060200-
TEXAS TECH WEST TEXAS MESONET/PERMIAN BASIN/
CONCHO VALLEY/BIG COUNTRY/EDWARDS PLATEAU

CITY           SKY/WX    TMP DP  RH WIND       PRES   REMARKS
COYANOSA 2N      N/A     91  64  40 SE14      29.89S
JUNCTION 1SSW    N/A     87  68  52 S14       29.96R
MERTZON 3NNE     N/A     85  65  51 S10       29.96R
SAN ANGELO 7NW   N/A     87  61  40 SE10      29.94R
STRLNG CT 4WSW   N/A     88  64  45 SE15      29.94R
ST LAWRNCE 5SW   N/A     88  63  43 S20       29.94R
SWEETWATR 11SW   N/A     86  65  49 SE16      29.95S
WALL 1E          N/A     89  61  39 S14       29.94R
$$

TXZ055-058-074-075-080-082-060200-
TEXAS TECH WEST TEXAS MESONET/FAR WEST/SOUTHWEST MOUNTAINS/TRANS PECOS

CITY           SKY/WX    TMP DP  RH WIND       PRES   REMARKS
PRSMN GAP BBNP   N/A     76  67  72 N16       29.97F
$$


USA.gov is the U.S. government's official web portal to all federal, state and local government web resources and services.